Houston Hull, TX

9:04 PM CST on December 09, 2019 (GMT -0600)
Sugar Land Municipal-Hull

Weather History for KSGR - October, 2019

Change the Weather History Date:

Sunday, October 20, 2019

  Actual Average Record
Temperature  
Mean Temperature 82 °F -  
Max Temperature 91 °F 80 °F 91 °F (2004)
Min Temperature 73 °F 57 °F 35 °F (1976)
Cooling Degree Days 16    
Growing Degree Days 32 (Base 50)    
Moisture  
Dew Point 76 °F    
Average Humidity 88    
Maximum Humidity 100    
Minimum Humidity 59    
Precipitation  
Precipitation 0.00 in - - ()
Sea Level Pressure  
Sea Level Pressure 29.80 in    
Wind  
Wind Speed 6 mph (South)    
Max Wind Speed 18 mph    
Max Gust Speed 23 mph    
Visibility 8 miles    
Events Fog    
Averages and records for this station are not official NWS values.
T = Trace of Precipitation, MM = Missing Value Source: NWS Daily Summary

Daily Weather History Graph

Daily Weather History Graph

Search for Another Location

Airport or City:

Astronomy

Oct. 20, 2019 Rise Set
Actual Time 7:27 AM CDT 6:47 PM CDT
Civil Twilight 7:03 AM CDT 7:11 PM CDT
Nautical Twilight 6:35 AM CDT 7:39 PM CDT
Astronomical Twilight 6:07 AM CDT 8:06 PM CDT
Moon No Moon Rise 1:38 PM CDT (10/20)
Length of Visible Light 12h 08m
Length of Day
11h 19m
Waning Gibbous, 59% of the Moon is Illuminated
Oct 20
Waning Gibbous
Oct 21
Last Quarter
Oct 27
New
Nov 4
First Quarter
Nov 12
Full

Hourly Weather History & Observations

Time (CDT) Temp. Heat Index Dew Point Humidity Pressure Visibility Wind Dir Wind Speed Gust Speed Precip Events Conditions
12:53 AM 77.0 °F - 75.9 °F 96% 29.77 in 10.0 mi SSW 9.2 mph - N/A   Clear
1:53 AM 77.0 °F - 75.9 °F 96% 29.78 in 10.0 mi SSW 8.1 mph - N/A   Clear
2:25 AM 77.0 °F - 75.9 °F 96% 29.78 in 10.0 mi West 4.6 mph - N/A   Scattered Clouds
2:37 AM 75.9 °F - 75.0 °F 97% 29.78 in 10.0 mi NW 3.5 mph - N/A   Mostly Cloudy
2:53 AM 75.9 °F - 75.9 °F 100% 29.79 in 10.0 mi West 3.5 mph - N/A   Overcast
3:53 AM 77.0 °F - 77.0 °F 100% 29.79 in 10.0 mi Calm Calm - N/A   Overcast
4:08 AM 78.1 °F - 75.9 °F 93% 29.78 in 10.0 mi West 3.5 mph - N/A   Overcast
4:33 AM 77.0 °F - 75.9 °F 96% 29.79 in 10.0 mi Calm Calm - N/A   Overcast
4:53 AM 77.0 °F - 75.9 °F 96% 29.79 in 10.0 mi Calm Calm - N/A   Overcast
5:02 AM 77.0 °F - 75.9 °F 96% 29.79 in 10.0 mi Calm Calm - N/A   Overcast
5:53 AM 75.9 °F - 75.0 °F 97% 29.80 in 10.0 mi Calm Calm - N/A   Mostly Cloudy
6:53 AM 75.9 °F - 75.0 °F 97% 29.82 in 10.0 mi Calm Calm - N/A   Mostly Cloudy
7:14 AM 75.9 °F - 75.0 °F 97% 29.81 in 6.0 mi Calm Calm - N/A   Scattered Clouds
7:18 AM 75.0 °F - 75.0 °F 100% 29.81 in 1.8 mi Calm Calm - N/A   Scattered Clouds
7:26 AM 75.0 °F - 75.0 °F 100% 29.81 in 0.5 mi SSE 3.5 mph - N/A Fog Fog
7:30 AM 75.0 °F - 75.0 °F 100% 29.81 in 0.8 mi Calm Calm - N/A   Mist
7:35 AM 75.0 °F - 75.0 °F 100% 29.81 in 1.2 mi Calm Calm - N/A   Scattered Clouds
7:39 AM 75.0 °F - 75.0 °F 100% 29.81 in 3.0 mi Calm Calm - N/A   Partly Cloudy
7:43 AM 73.9 °F - 73.9 °F 100% 29.81 in 1.8 mi Calm Calm - N/A   Scattered Clouds
7:48 AM 73.4 °F - 73.4 °F 100% 29.81 in 0.8 mi Calm Calm - N/A   Mostly Cloudy
7:53 AM 73.9 °F - 73.9 °F 100% 29.82 in 10.0 mi Calm Calm - N/A   Mostly Cloudy
8:38 AM 78.1 °F - 77.0 °F 96% 29.83 in 10.0 mi Calm Calm - 0.00 in   Mostly Cloudy
8:53 AM 79.0 °F - 77.0 °F 94% 29.84 in 10.0 mi Calm Calm - 0.00 in   Overcast
9:42 AM 82.0 °F 91.0 °F 78.1 °F 88% 29.84 in 10.0 mi South 4.6 mph - N/A   Mostly Cloudy
9:53 AM 82.0 °F 90.2 °F 77.0 °F 85% 29.85 in 10.0 mi South 3.5 mph - N/A   Mostly Cloudy
10:11 AM 82.0 °F 90.2 °F 77.0 °F 85% 29.84 in 10.0 mi SSW 5.8 mph - N/A   Mostly Cloudy
10:53 AM 86.0 °F 98.3 °F 78.1 °F 77% 29.84 in 10.0 mi SSW 10.4 mph - N/A   Mostly Cloudy
11:34 AM 87.1 °F 98.8 °F 77.0 °F 72% 29.83 in 10.0 mi South 13.8 mph 17.3 mph N/A   Mostly Cloudy
11:45 AM 88.0 °F 100.2 °F 77.0 °F 70% 29.83 in 10.0 mi South 9.2 mph - N/A   Mostly Cloudy
11:53 AM 89.1 °F 100.2 °F 75.9 °F 65% 29.83 in 10.0 mi South 15.0 mph 20.7 mph N/A   Mostly Cloudy
12:53 PM 90.0 °F 100.2 °F 75.0 °F 61% 29.81 in 10.0 mi SSE 17.3 mph 20.7 mph N/A   Scattered Clouds
1:53 PM 90.0 °F 99.0 °F 73.9 °F 59% 29.78 in 10.0 mi South 15.0 mph 21.9 mph N/A   Partly Cloudy
2:53 PM 90.0 °F 100.2 °F 75.0 °F 61% 29.75 in 10.0 mi South 18.4 mph - N/A   Scattered Clouds
3:53 PM 87.1 °F 96.3 °F 75.0 °F 67% 29.75 in 10.0 mi South 17.3 mph 23.0 mph N/A   Mostly Cloudy
4:53 PM 88.0 °F 98.5 °F 75.9 °F 67% 29.75 in 10.0 mi South 17.3 mph 21.9 mph N/A   Partly Cloudy
5:53 PM 84.0 °F 91.9 °F 75.0 °F 74% 29.75 in 10.0 mi South 16.1 mph - N/A   Partly Cloudy
6:53 PM 82.0 °F 89.4 °F 75.9 °F 82% 29.75 in 10.0 mi SSE 12.7 mph - N/A   Partly Cloudy
7:53 PM 81.0 °F 87.3 °F 75.9 °F 85% 29.76 in 10.0 mi South 11.5 mph - N/A   Mostly Cloudy
8:53 PM 81.0 °F 87.9 °F 77.0 °F 88% 29.77 in 10.0 mi South 11.5 mph - N/A   Mostly Cloudy
9:53 PM 80.1 °F 85.8 °F 77.0 °F 90% 29.76 in 10.0 mi SSE 12.7 mph - N/A   Clear
10:53 PM 80.1 °F 85.8 °F 77.0 °F 90% 29.76 in 10.0 mi South 10.4 mph - N/A   Partly Cloudy
11:53 PM 80.1 °F 85.8 °F 77.0 °F 90% 29.76 in 10.0 mi South 12.7 mph - N/A   Clear